When you browse on this site, cookies collect data to enhance your experience and personalize the content and advertising you see.
Visit our Privacy Policy to learn more. By continuing to use the site, you agree to this use of cookies and data.

Meteo orario Canberra

Oggi, 13 Agosto, Giovedi

Tempo Temperatura Precipitazioni Vento Pressione Umidità
00:00 +6°C° 0 mm 0 m/s 706 mm Hg 97%
01:00 +6°C° 0 mm 0 m/s 705 mm Hg 97%
02:00 +6°C° 0 mm 0 m/s 705 mm Hg 97%
03:00 +7°C° 0 mm 1 m/s 705 mm Hg 98%
04:00 +7°C° 0 mm 1 m/s 705 mm Hg 99%
05:00 +7°C° 0 mm 1 m/s 705 mm Hg 99%
06:00 +7°C° 0 mm 1 m/s 706 mm Hg 99%
07:00 +7°C° 0 mm 1 m/s 706 mm Hg 98%
08:00 +9°C° 0 mm 1 m/s 706 mm Hg 96%
09:00 +9°C° 0 mm 2 m/s 707 mm Hg 93%
10:00 +12°C° 0 mm 2 m/s 707 mm Hg 90%
11:00 +13°C° 0 mm 2 m/s 707 mm Hg 82%
12:00 +13°C° 0 mm 3 m/s 707 mm Hg 75%
13:00 +16°C° 0 mm 3 m/s 707 mm Hg 67%
14:00 +16°C° 0 mm 3 m/s 707 mm Hg 67%
15:00 +16°C° 0 mm 3 m/s 707 mm Hg 67%
16:00 +14°C° 0 mm 3 m/s 707 mm Hg 66%
17:00 +12°C° 0 mm 3 m/s 707 mm Hg 75%
18:00 +10°C° 0 mm 2 m/s 707 mm Hg 83%
19:00 +9°C° 0 mm 2 m/s 707 mm Hg 92%
20:00 +9°C° 0 mm 1 m/s 708 mm Hg 92%
21:00 +9°C° 0 mm 1 m/s 708 mm Hg 93%
22:00 +8°C° 0 mm 1 m/s 708 mm Hg 93%
23:00 +7°C° 0 mm 0 m/s 708 mm Hg 93%

Domani, 14 Agosto, Venerdi

Tempo Temperatura Precipitazioni Vento Pressione Umidità
00:00 +6°C° 0 mm 0 m/s 708 mm Hg 93%
01:00 +6°C° 0 mm 0 m/s 708 mm Hg 94%
02:00 +6°C° 0 mm 0 m/s 708 mm Hg 94%
03:00 +6°C° 0 mm 0 m/s 707 mm Hg 94%
04:00 +6°C° 0 mm 0 m/s 707 mm Hg 94%
05:00 +6°C° 0 mm 0 m/s 707 mm Hg 94%
06:00 +5°C° 0 mm 0 m/s 707 mm Hg 94%
07:00 +5°C° 0 mm 0 m/s 707 mm Hg 95%
08:00 +8°C° 0 mm 0 m/s 707 mm Hg 88%
09:00 +10°C° 0 mm 0 m/s 708 mm Hg 82%
10:00 +12°C° 0 mm 0 m/s 708 mm Hg 75%
11:00 +14°C° 0.1 mm 1 m/s 707 mm Hg 70%
12:00 +15°C° 0.1 mm 2 m/s 707 mm Hg 64%
13:00 +16°C° 0.1 mm 2 m/s 706 mm Hg 59%
14:00 +15°C° 0.1 mm 2 m/s 706 mm Hg 64%
15:00 +15°C° 0.1 mm 1 m/s 706 mm Hg 69%
16:00 +14°C° 0.1 mm 1 m/s 705 mm Hg 74%
17:00 +13°C° 0 mm 1 m/s 705 mm Hg 77%
18:00 +11°C° 0 mm 0 m/s 705 mm Hg 80%
19:00 +10°C° 0 mm 0 m/s 705 mm Hg 84%
20:00 +10°C° 0.1 mm 0 m/s 705 mm Hg 84%
21:00 +10°C° 0.1 mm 0 m/s 705 mm Hg 84%
22:00 +9°C° 0.1 mm 0 m/s 705 mm Hg 85%
23:00 +9°C° 0.6 mm 0 m/s 705 mm Hg 88%

Dopodomani, 15 Agosto, Sabato

Tempo Temperatura Precipitazioni Vento Pressione Umidità
00:00 +10°C° 0.6 mm 1 m/s 705 mm Hg 92%
01:00 +10°C° 0.6 mm 1 m/s 704 mm Hg 95%
02:00 +10°C° 0.1 mm 1 m/s 704 mm Hg 95%
03:00 +10°C° 0.1 mm 1 m/s 703 mm Hg 95%
04:00 +9°C° 0.1 mm 1 m/s 703 mm Hg 95%
05:00 +9°C° 0.1 mm 1 m/s 703 mm Hg 95%
06:00 +9°C° 0.1 mm 1 m/s 703 mm Hg 95%
07:00 +8°C° 0.1 mm 0 m/s 703 mm Hg 95%
08:00 +10°C° 0.1 mm 1 m/s 703 mm Hg 94%
09:00 +10°C° 0.1 mm 1 m/s 703 mm Hg 93%
10:00 +10°C° 0.1 mm 2 m/s 703 mm Hg 92%
11:00 +10°C° 0.2 mm 2 m/s 703 mm Hg 89%
12:00 +12°C° 0.2 mm 2 m/s 702 mm Hg 86%
13:00 +12°C° 0.2 mm 3 m/s 702 mm Hg 82%
14:00 +12°C° 0.3 mm 3 m/s 702 mm Hg 81%
15:00 +12°C° 0.3 mm 3 m/s 702 mm Hg 80%
16:00 +12°C° 0.3 mm 3 m/s 701 mm Hg 79%
17:00 +11°C° 0.2 mm 3 m/s 702 mm Hg 83%
18:00 +10°C° 0.2 mm 3 m/s 702 mm Hg 88%
19:00 +9°C° 0.2 mm 3 m/s 702 mm Hg 92%
20:00 +8°C° 0 mm 3 m/s 702 mm Hg 92%
21:00 +8°C° 0 mm 3 m/s 702 mm Hg 93%
22:00 +8°C° 0 mm 3 m/s 702 mm Hg 93%
23:00 +8°C° 0 mm 3 m/s 702 mm Hg 93%

16 Agosto, Domenica

Tempo Temperatura Precipitazioni Vento Pressione Umidità
00:00 +7°C° 0 mm 3 m/s 702 mm Hg 93%
01:00 +7°C° 0 mm 3 m/s 701 mm Hg 93%
02:00 +7°C° 0 mm 3 m/s 701 mm Hg 93%
03:00 +6°C° 0 mm 4 m/s 701 mm Hg 93%
04:00 +6°C° 0 mm 4 m/s 701 mm Hg 93%
05:00 +6°C° 0 mm 4 m/s 701 mm Hg 94%
06:00 +5°C° 0 mm 4 m/s 702 mm Hg 94%
07:00 +5°C° 0 mm 4 m/s 702 mm Hg 94%
08:00 +7°C° 0 mm 4 m/s 702 mm Hg 87%
09:00 +9°C° 0 mm 5 m/s 703 mm Hg 81%
10:00 +10°C° 0 mm 5 m/s 703 mm Hg 74%
11:00 +12°C° 0 mm 5 m/s 703 mm Hg 71%
12:00 +11°C° 0 mm 6 m/s 703 mm Hg 68%
13:00 +11°C° 0 mm 6 m/s 702 mm Hg 65%
14:00 +11°C° 0 mm 6 m/s 702 mm Hg 68%
15:00 +10°C° 0 mm 6 m/s 702 mm Hg 70%
16:00 +10°C° 0 mm 5 m/s 702 mm Hg 72%
17:00 +9°C° 0 mm 5 m/s 702 mm Hg 78%
18:00 +8°C° 0 mm 4 m/s 703 mm Hg 83%
19:00 +7°C° 0 mm 4 m/s 703 mm Hg 88%
20:00 +7°C° 0 mm 4 m/s 703 mm Hg 88%
21:00 +7°C° 0 mm 4 m/s 703 mm Hg 88%
22:00 +7°C° 0 mm 4 m/s 703 mm Hg 88%
23:00 +6°C° 0 mm 4 m/s 703 mm Hg 90%

17 Agosto, Lunedi

Tempo Temperatura Precipitazioni Vento Pressione Umidità
00:00 +7°C° 0 mm 3 m/s 703 mm Hg 91%
01:00 +5°C° 0 mm 3 m/s 703 mm Hg 93%
02:00 +5°C° 0 mm 3 m/s 703 mm Hg 93%
03:00 +5°C° 0 mm 3 m/s 703 mm Hg 94%
04:00 +4°C° 0 mm 3 m/s 703 mm Hg 94%
05:00 +4°C° 0 mm 3 m/s 703 mm Hg 94%
06:00 +4°C° 0 mm 3 m/s 704 mm Hg 94%
07:00 +4°C° 0 mm 3 m/s 704 mm Hg 93%
08:00 +5°C° 0 mm 3 m/s 704 mm Hg 86%
09:00 +7°C° 0 mm 4 m/s 705 mm Hg 78%
10:00 +8°C° 0 mm 4 m/s 705 mm Hg 71%
11:00 +10°C° 0 mm 4 m/s 705 mm Hg 67%
12:00 +10°C° 0 mm 5 m/s 704 mm Hg 64%
13:00 +10°C° 0 mm 5 m/s 704 mm Hg 61%
14:00 +9°C° 0 mm 5 m/s 704 mm Hg 62%
15:00 +9°C° 0 mm 5 m/s 704 mm Hg 64%
16:00 +8°C° 0 mm 5 m/s 703 mm Hg 65%
17:00 +7°C° 0 mm 4 m/s 703 mm Hg 71%
18:00 +5°C° 0 mm 3 m/s 704 mm Hg 77%
19:00 +3°C° 0 mm 3 m/s 704 mm Hg 83%
20:00 +3°C° 0 mm 3 m/s 704 mm Hg 85%
21:00 +3°C° 0 mm 2 m/s 704 mm Hg 88%
22:00 +3°C° 0 mm 2 m/s 704 mm Hg 91%
23:00 +3°C° 0 mm 2 m/s 704 mm Hg 92%

18 Agosto, Martedi

Tempo Temperatura Precipitazioni Vento Pressione Umidità
00:00 +3°C° 0 mm 2 m/s 704 mm Hg 92%
01:00 +3°C° 0 mm 2 m/s 704 mm Hg 93%
02:00 +3°C° 0 mm 2 m/s 703 mm Hg 92%
03:00 +4°C° 0 mm 2 m/s 703 mm Hg 92%
04:00 +4°C° 0 mm 2 m/s 703 mm Hg 91%
05:00 +4°C° 0 mm 2 m/s 703 mm Hg 91%
06:00 +4°C° 0 mm 2 m/s 703 mm Hg 91%
07:00 +5°C° 0 mm 2 m/s 703 mm Hg 92%
08:00 +5°C° 0.3 mm 2 m/s 703 mm Hg 92%
09:00 +5°C° 0.3 mm 3 m/s 702 mm Hg 93%
10:00 +5°C° 0.3 mm 4 m/s 702 mm Hg 94%
11:00 +7°C° 0.5 mm 3 m/s 702 mm Hg 94%
12:00 +7°C° 0.5 mm 3 m/s 701 mm Hg 94%
13:00 +8°C° 0.5 mm 3 m/s 700 mm Hg 94%
14:00 +7°C° 0.2 mm 4 m/s 700 mm Hg 93%
15:00 +8°C° 0.2 mm 4 m/s 700 mm Hg 91%
16:00 +8°C° 0.2 mm 5 m/s 699 mm Hg 90%
17:00 +7°C° 0.2 mm 4 m/s 699 mm Hg 92%
18:00 +7°C° 0.2 mm 4 m/s 700 mm Hg 94%
19:00 +6°C° 0.2 mm 4 m/s 700 mm Hg 96%
20:00 +7°C° 0.1 mm 3 m/s 700 mm Hg 97%
21:00 +5°C° 0.1 mm 3 m/s 700 mm Hg 97%
22:00 +6°C° 0.1 mm 2 m/s 700 mm Hg 98%
23:00 +5°C° 0 mm 2 m/s 700 mm Hg 98%
Mostrare altro